• In Hungary
  • List of Countries
  • For 7 days
  • Water Temperature
  • Satellite Maps
  • Weather Map
  • News
  • Weather Widgets
  • user-avatar
    Login

    Hourly Weather Severomuysk

    Today, 22 February, Thursday

    Time Temperature Precipitation Wind Pressure Humidity
    00:00 -24°C° 0 mm 1 mps 695 mmHg 95%
    01:00 -25°C° 0 mm 1 mps 695 mmHg 95%
    02:00 -25°C° 0 mm 1 mps 695 mmHg 95%
    03:00 -25°C° 0 mm 1 mps 695 mmHg 95%
    04:00 -25°C° 0 mm 1 mps 695 mmHg 95%
    05:00 -25°C° 0 mm 1 mps 695 mmHg 95%
    06:00 -25°C° 0 mm 1 mps 695 mmHg 95%
    07:00 -27°C° 0 mm 1 mps 695 mmHg 95%
    08:00 -27°C° 0 mm 2 mps 695 mmHg 95%
    09:00 -22°C° 0 mm 1 mps 695 mmHg 92%
    10:00 -21°C° 0 mm 1 mps 695 mmHg 90%
    11:00 -19°C° 0 mm 1 mps 695 mmHg 87%
    12:00 -19°C° 0 mm 1 mps 695 mmHg 85%
    13:00 -20°C° 0 mm 2 mps 695 mmHg 82%
    14:00 -19°C° 0 mm 2 mps 695 mmHg 79%
    15:00 -18°C° 0 mm 1 mps 695 mmHg 82%
    16:00 -20°C° 0 mm 1 mps 695 mmHg 86%
    17:00 -21°C° 0 mm 1 mps 695 mmHg 89%
    18:00 -22°C° 0 mm 1 mps 695 mmHg 90%
    19:00 -23°C° 0 mm 1 mps 695 mmHg 92%
    20:00 -24°C° 0 mm 1 mps 696 mmHg 93%
    21:00 -25°C° 0 mm 1 mps 696 mmHg 93%
    22:00 -25°C° 0 mm 1 mps 696 mmHg 92%
    23:00 -25°C° 0 mm 1 mps 697 mmHg 92%

    Tomorrow, 23 February, Friday

    Time Temperature Precipitation Wind Pressure Humidity
    00:00 -25°C° 0 mm 1 mps 697 mmHg 92%
    01:00 -25°C° 0 mm 1 mps 697 mmHg 92%
    02:00 -27°C° 0 mm 1 mps 698 mmHg 91%
    03:00 -25°C° 0 mm 1 mps 698 mmHg 91%
    04:00 -25°C° 0 mm 1 mps 698 mmHg 91%
    05:00 -25°C° 0 mm 1 mps 698 mmHg 90%
    06:00 -25°C° 0 mm 1 mps 699 mmHg 89%
    07:00 -25°C° 0 mm 1 mps 699 mmHg 89%
    08:00 -24°C° 0 mm 1 mps 699 mmHg 88%
    09:00 -22°C° 0 mm 1 mps 699 mmHg 84%
    10:00 -20°C° 0 mm 1 mps 700 mmHg 80%
    11:00 -18°C° 0 mm 1 mps 700 mmHg 76%
    12:00 -17°C° 0 mm 1 mps 700 mmHg 75%
    13:00 -17°C° 0 mm 1 mps 700 mmHg 74%
    14:00 -16°C° 0 mm 1 mps 699 mmHg 73%
    15:00 -17°C° 0 mm 1 mps 699 mmHg 77%
    16:00 -18°C° 0 mm 1 mps 699 mmHg 82%
    17:00 -19°C° 0 mm 0 mps 699 mmHg 86%
    18:00 -20°C° 0 mm 1 mps 699 mmHg 86%
    19:00 -21°C° 0 mm 1 mps 700 mmHg 86%
    20:00 -22°C° 0 mm 1 mps 700 mmHg 86%
    21:00 -22°C° 0 mm 1 mps 700 mmHg 85%
    22:00 -22°C° 0 mm 1 mps 700 mmHg 84%
    23:00 -23°C° 0 mm 1 mps 700 mmHg 82%

    Day after tomorrow, 24 February, Saturday

    Time Temperature Precipitation Wind Pressure Humidity
    00:00 -23°C° 0 mm 1 mps 700 mmHg 82%
    01:00 -23°C° 0 mm 1 mps 700 mmHg 82%
    02:00 -23°C° 0 mm 1 mps 700 mmHg 82%
    03:00 -24°C° 0 mm 1 mps 700 mmHg 82%
    04:00 -24°C° 0 mm 1 mps 700 mmHg 82%
    05:00 -24°C° 0 mm 1 mps 700 mmHg 82%
    06:00 -24°C° 0 mm 1 mps 700 mmHg 82%
    07:00 -24°C° 0 mm 1 mps 700 mmHg 81%
    08:00 -24°C° 0 mm 1 mps 700 mmHg 80%
    09:00 -21°C° 0 mm 1 mps 700 mmHg 78%
    10:00 -19°C° 0 mm 1 mps 700 mmHg 75%
    11:00 -17°C° 0 mm 1 mps 700 mmHg 73%
    12:00 -16°C° 0 mm 1 mps 699 mmHg 72%
    13:00 -15°C° 0 mm 1 mps 699 mmHg 72%
    14:00 -14°C° 0 mm 1 mps 699 mmHg 71%
    15:00 -15°C° 0 mm 1 mps 698 mmHg 77%
    16:00 -16°C° 0 mm 1 mps 698 mmHg 82%
    17:00 -16°C° 0 mm 0 mps 698 mmHg 87%
    18:00 -17°C° 0 mm 1 mps 698 mmHg 88%
    19:00 -18°C° 0 mm 1 mps 699 mmHg 89%
    20:00 -19°C° 0 mm 1 mps 699 mmHg 89%
    21:00 -19°C° 0 mm 1 mps 699 mmHg 89%
    22:00 -19°C° 0 mm 1 mps 699 mmHg 89%
    23:00 -20°C° 0 mm 1 mps 699 mmHg 89%

    25 February, Sunday

    Time Temperature Precipitation Wind Pressure Humidity
    00:00 -20°C° 0 mm 1 mps 698 mmHg 89%
    01:00 -20°C° 0 mm 1 mps 698 mmHg 89%
    02:00 -20°C° 0 mm 1 mps 698 mmHg 89%
    03:00 -21°C° 0 mm 1 mps 698 mmHg 89%
    04:00 -21°C° 0 mm 1 mps 698 mmHg 90%
    05:00 -21°C° 0 mm 1 mps 698 mmHg 90%
    06:00 -21°C° 0 mm 1 mps 698 mmHg 89%
    07:00 -21°C° 0 mm 1 mps 698 mmHg 89%
    08:00 -21°C° 0 mm 1 mps 698 mmHg 88%
    09:00 -19°C° 0 mm 1 mps 698 mmHg 86%
    10:00 -17°C° 0 mm 1 mps 699 mmHg 83%
    11:00 -15°C° 0 mm 1 mps 699 mmHg 80%
    12:00 -15°C° 0 mm 1 mps 698 mmHg 79%
    13:00 -14°C° 0 mm 1 mps 698 mmHg 78%
    14:00 -13°C° 0 mm 1 mps 698 mmHg 77%
    15:00 -14°C° 0 mm 1 mps 698 mmHg 81%
    16:00 -15°C° 0 mm 1 mps 698 mmHg 85%
    17:00 -16°C° 0 mm 0 mps 698 mmHg 89%
    18:00 -17°C° 0 mm 1 mps 698 mmHg 90%
    19:00 -18°C° 0 mm 1 mps 698 mmHg 91%
    20:00 -19°C° 0 mm 1 mps 699 mmHg 92%
    21:00 -19°C° 0 mm 1 mps 699 mmHg 91%
    22:00 -20°C° 0 mm 1 mps 699 mmHg 91%
    23:00 -20°C° 0 mm 1 mps 699 mmHg 90%

    26 February, Monday

    Time Temperature Precipitation Wind Pressure Humidity
    00:00 -20°C° 0 mm 1 mps 699 mmHg 90%
    01:00 -20°C° 0 mm 1 mps 699 mmHg 89%
    02:00 -21°C° 0 mm 1 mps 699 mmHg 89%
    03:00 -21°C° 0 mm 1 mps 699 mmHg 89%
    04:00 -21°C° 0 mm 1 mps 699 mmHg 89%
    05:00 -21°C° 0 mm 1 mps 699 mmHg 89%
    06:00 -21°C° 0 mm 1 mps 699 mmHg 88%
    07:00 -21°C° 0 mm 1 mps 699 mmHg 88%
    08:00 -21°C° 0 mm 1 mps 699 mmHg 87%
    09:00 -19°C° 0 mm 1 mps 700 mmHg 85%
    10:00 -17°C° 0 mm 1 mps 700 mmHg 82%
    11:00 -15°C° 0 mm 1 mps 700 mmHg 80%
    12:00 -15°C° 0 mm 1 mps 700 mmHg 79%
    13:00 -14°C° 0 mm 1 mps 700 mmHg 78%
    14:00 -14°C° 0 mm 1 mps 699 mmHg 77%
    15:00 -14°C° 0 mm 1 mps 699 mmHg 82%
    16:00 -15°C° 0 mm 1 mps 700 mmHg 86%
    17:00 -15°C° 0 mm 1 mps 700 mmHg 90%
    18:00 -16°C° 0 mm 1 mps 700 mmHg 91%
    19:00 -18°C° 0 mm 1 mps 700 mmHg 93%
    20:00 -19°C° 0 mm 1 mps 701 mmHg 95%
    21:00 -19°C° 0 mm 1 mps 701 mmHg 95%
    22:00 -19°C° 0 mm 1 mps 701 mmHg 95%
    23:00 -20°C° 0 mm 1 mps 701 mmHg 94%

    27 February, Tuesday

    Time Temperature Precipitation Wind Pressure Humidity
    00:00 -20°C° 0 mm 1 mps 701 mmHg 94%
    01:00 -20°C° 0 mm 1 mps 701 mmHg 94%
    02:00 -20°C° 0 mm 1 mps 701 mmHg 94%
    03:00 -21°C° 0 mm 1 mps 701 mmHg 94%
    04:00 -21°C° 0 mm 1 mps 701 mmHg 94%
    05:00 -21°C° 0 mm 1 mps 701 mmHg 95%
    06:00 -21°C° 0 mm 1 mps 702 mmHg 94%
    07:00 -22°C° 0 mm 1 mps 702 mmHg 94%
    08:00 -22°C° 0 mm 1 mps 702 mmHg 94%
    09:00 -20°C° 0 mm 1 mps 702 mmHg 91%
    10:00 -19°C° 0 mm 1 mps 702 mmHg 88%
    11:00 -17°C° 0 mm 1 mps 702 mmHg 85%
    12:00 -17°C° 0 mm 1 mps 702 mmHg 83%
    13:00 -16°C° 0 mm 1 mps 701 mmHg 82%
    14:00 -16°C° 0 mm 1 mps 701 mmHg 80%
    15:00 -16°C° 0 mm 1 mps 701 mmHg 83%
    16:00 -17°C° 0 mm 1 mps 701 mmHg 86%
    17:00 -18°C° 0 mm 1 mps 700 mmHg 89%
    18:00 -19°C° 0 mm 1 mps 700 mmHg 91%
    19:00 -21°C° 0 mm 1 mps 701 mmHg 93%
    20:00 -23°C° 0 mm 1 mps 701 mmHg 95%
    21:00 -23°C° 0 mm 1 mps 701 mmHg 95%
    22:00 -24°C° 0 mm 1 mps 700 mmHg 95%
    23:00 -24°C° 0 mm 1 mps 700 mmHg 95%
    Show more